Location: Newark
(42.9260°N, 89.3850°W)
Time: 12:59:20
(UTC+00:00)

STARLINK 1065 - Pass Details

Date: 14 December 2019
Orbit: 549 x 550 km, 53.0° (Epoch: 27 January)

Event Time Altitude Azimuth Distance (km) Brightness Sun altitude
Exits shadow 11:09:23 24° 193° (SSW) 1,168 5.2 -23.1°
Drops below altitude 10° 11:11:41 10° 166° (SSE) 1,840 6.6 -22.7°
Sets 11:14:06 0° 155° (SSE) 2,730 7.7 -22.3°
